Flag for U.S.A. Weather past 2 weeks in Vista, California, U.S.A.

Now
71 °F

Mostly cloudy.


Feels Like: 71 °F
Forecast: 66 / 79 °F
Wind: 9 mph from West

Location: McClellan-Palomar Airport

Current Time: Aug 1, 2015 at 11:42:55 AM

Latest Report: Aug 1, 2015 at 10:53 AM


Visibility: 7 mi

Pressure: 29.96 "Hg

Humidity: 81%

Dew point: 65 °F

Location of VistaLocation

Historic Weather in Vista — Graph

°F

Vista temperature yesterday

Maximum temperature yesterday: 77 °F (at 1:53 PM)
Minimum temperature yesterday: 69 °F (at 2:53 AM)
Average temperature yesterday: 72 °F

Past Weeks' High & Low Weather Summary

 TemperatureHumidityPressure
High84 °F (Jul 19, 9:53 AM)100% (Jul 21, 3:53 AM)30.06 "Hg (Jul 21, 3:53 AM)
Low64 °F (Jul 28, 4:53 AM)43% (Jul 18, 9:53 AM)29.81 "Hg (Jul 17, 3:53 PM)
Average72 °F80%29.94 "Hg
* Reported Jul 17 9:53 AM — Aug 1 9:53 AM, Vista, Weather by CustomWeather, © 2015

Note: Actual official high and low records may vary slightly from our data, if they occured in-between our weather recording intervals... More about our weather records

Advertising

Vista weather history for previous 24 hours

 ConditionsComfort  
Time TempWeatherWind HumidityBarometerVisibility
9:53 AM
Sat, Aug 1
70 °FFog.8 mph87%29.97 "Hg6 mi
8:53 AM70 °FOvercast.3 mph84%29.97 "Hg8 mi
7:53 AM69 °FFog.No wind90%29.98 "Hg4 mi
6:53 AM69 °FFog.3 mph87%29.97 "Hg6 mi
5:53 AM69 °FOvercast.3 mph87%29.95 "Hg8 mi
4:53 AM70 °FOvercast.3 mph84%29.94 "Hg9 mi
3:53 AM70 °FOvercast.3 mph84%29.94 "Hg9 mi
2:53 AM70 °FOvercast.No wind84%29.95 "Hg8 mi
1:53 AM70 °FOvercast.No wind84%29.96 "Hg8 mi
12:53 AM70 °FOvercast.No wind84%29.96 "Hg8 mi
11:53 PM
Fri, Jul 31
70 °FLow clouds.No wind84%29.96 "Hg8 mi
10:53 PM70 °FLow clouds.3 mph84%29.95 "Hg8 mi
9:53 PM70 °FOvercast.No wind84%29.96 "Hg9 mi
8:53 PM70 °FOvercast.5 mph84%29.96 "Hg9 mi
7:53 PM70 °FOvercast.5 mph84%29.95 "Hg7 mi
6:53 PM71 °FOvercast.3 mph84%29.94 "Hg7 mi
5:53 PM73 °FSunny.10 mph79%29.93 "Hg8 mi
4:53 PM73 °FSunny.6 mph79%29.95 "Hg9 mi
3:53 PM74 °FSunny.8 mph74%29.96 "Hg9 mi
2:53 PM75 °FSunny.8 mph71%29.97 "Hg9 mi
1:53 PM77 °FSunny.6 mph66%29.98 "Hg10 mi
12:53 PM76 °FSunny.7 mph69%30.00 "Hg10 mi
11:53 AM76 °FSunny.10 mph72%30.01 "Hg9 mi
Weather by CustomWeather, © 2015

See weather overviewHow to use our weather pages